CBERS 4A (44883 NORAD) Tracking and Keplerian Element Data

This shows tracking and keplerian element data for the satellite.

Feedback or suggestion? Click here.




ElementValue
Catalog44883
NameCBERS 4A
Epoch Orbit1556
Epoch Day94.21031325
Epoch Year2020
RAAN170.774
Inclination97.9624
Eccentricity0.0001531
Argument of Perigee83.5763
Mean Anonmoly276.5625
Mean Motion14.8151911
Decay Rate7.1E-07
L11 44883U 19093E 20094.21031325 .00000071 00000-0 15835-4 0 9995
L22 44883 97.9624 170.7740 0001531 83.5763 276.5625 14.81519110 15565

Live tracking and technical data element details for CBERS 4A (NORAD 44883). CBERS 4A can be tracked NOW for your location showing map with azimuth and elevation plus other details from your city location.

Track the satellite on the map from your city or location and see movement details for azimuth, elevation, latitude, longitude, range, height, and movement on the map or in text.







IsCatalogInMostPopularTable: catalog: 44883, numindb: 36
Update: records affected: 1



GetName: 44883 CBERS 4A

Hit Count: updated at: Fri, 10 Apr 2020 18:25:28 GMT